sat.trackr.live / text

‹ back to catalog

SDA_1675

NORAD 65985 · 2025-230M

PAYLOAD ACTIVE UNKNOWN

§ Identity

Operator
Country
US
Launch date
2025-10-15
Launch site
AFWTR
Launch vehicle
Mass (kg)
RCS (m²)

External: N2YO · Heavens-Above · Gunter

§ Orbital elements

Epoch: 2026-05-25T04:17:15.584640Z

Period
103.99 min
Inclination
81.2986°
Eccentricity
0.0002597
Mean motion
13.84758501 rev/d
Perigee alt
945.2 km
Apogee alt
949.0 km
Semi-major
7,325.2 km
B*
1.6698e-4
RAAN
233.0289°
Arg perigee
195.9191°
Mean anomaly
164.1884°
Rev number
3,062

§ Raw data

SDA_16751 65985U 25230M   26145.17865260  .00000200  00000+0  16698-3 0  99922 65985  81.2986 233.0289 0002597 195.9191 164.1884 13.84758501 30629

JSON: /api/v1/satellites/65985 · /tle

For live sub-satellite position, see the globe view (requires WebGL).

§ Visibility from observer

Set your observer location to see the next 7 days of passes ≥ 10°. The values pass through the URL so the page stays shareable.

No JS? Fill the form by hand. The geolocation button needs JavaScript.